Location: Beddau
(51.5575°N, 3.3561°W)
Time: 13:55:12
(UTC+00:00)

COSMOS 2428 - Pass Details

Date: 03 March 2021
Orbit: 846 x 857 km, 70.9° (Epoch: 11 April)

Event Time Altitude Azimuth Distance (km) Brightness Sun altitude
Rises 21:00:49 0° 212° (SSW) 3,396 5.9 -28.4°
Reaches altitude 10° 21:03:15 10° 213° (SSW) 2,465 5.1 -28.8°
Enters shadow 21:07:11 46° 222° (SW) 1,121 3.3 -29.3°
Exits shadow 21:13:54 14° 29° (NNE) 2,204 4.9 -30.2°
Drops below altitude 10° 21:14:39 10° 29° (NNE) 2,486 5.1 -30.3°
Sets 21:17:07 0° 31° (NNE) 3,427 5.9 -30.6°
